Home > Weather > Melk > Past weeks

Flag for Austria Past Weather in Melk, Lower Austria, Austria — Yesterday and Last 2 Weeks

Now
71 °F

Mild.


Feels Like: 72 °F
Forecast: 60 / 85 °F
Wind: 1 mph from West

Location: Amstetten

Current Time: Jul 29, 2016 at 10:00:45 PM

Latest Report: Jul 29, 2016 at 9:00 PM


Visibility: N/A

Pressure: 29.95 "Hg

Humidity: 79%

Dew Point: 64 °F

Location of MelkLocation

Past Weather in Melk — Graph

°F

Melk Temperature Yesterday

Maximum temperature yesterday: 76 °F (at 4:00 PM)
Minimum temperature yesterday: 64 °F (at 5:00 AM)
Average temperature yesterday: 68 °F

High & Low Weather Summary for the Past Weeks

 TemperatureHumidityPressure
High84 °F (Jul 20, 4:00 PM)100% (Jul 18, 6:00 AM)30.29 "Hg (Jul 18, 6:00 AM)
Low50 °F (Jul 15, 4:00 AM)40% (Jul 19, 5:00 PM)29.90 "Hg (Jul 22, 6:00 PM)
Average69 °F80%30.07 "Hg
* Reported Jul 14 8:00 PM — Jul 29 8:00 PM, Melk, Weather by CustomWeather, © 2016

Note: Actual official high and low records may vary slightly from our data, if they occured in-between our weather recording intervals... More about our weather records

Advertising

Melk Weather History for the Previous 24 Hours

Scroll right to see more
 ConditionsComfort  
Time TempWeatherWind HumidityBarometerVisibility
8:00 PM
Fri, Jul 29
78 °FWarm.2 mph55%29.93 "HgN/A
7:00 PM80 °FWarm.3 mph52%29.93 "HgN/A
6:00 PM80 °FWarm.3 mph55%29.92 "HgN/A
5:00 PM80 °FWarm.2 mph54%29.92 "HgN/A
4:00 PM79 °FWarm.2 mph53%29.94 "HgN/A
3:00 PM78 °FWarm.3 mph58%29.96 "HgN/A
2:00 PM78 °FWarm.2 mph59%29.96 "HgN/A
1:00 PM75 °FMild.2 mph68%29.98 "HgN/A
12:00 PM75 °FMild.2 mph67%29.99 "HgN/A
11:00 AM73 °FMild.3 mph69%30.01 "HgN/A
10:00 AM71 °FMild.3 mph77%30.02 "HgN/A
9:00 AM67 °FMild.2 mph84%30.02 "HgN/A
8:00 AM65 °FPartly sunny.1 mph91%30.02 "HgN/A
7:00 AM62 °FCool.1 mph96%30.02 "HgN/A
6:00 AM61 °FCool.1 mph97%30.02 "HgN/A
5:00 AM60 °FCool.1 mph98%30.01 "HgN/A
4:00 AM62 °FCool.1 mph95%30.01 "HgN/A
3:00 AM63 °FMild.1 mph94%30.01 "HgN/A
1:00 AM65 °FMild.1 mph88%30.00 "HgN/A
12:00 AM67 °FMild.1 mph88%30.00 "HgN/A
10:00 PM
Thu, Jul 28
68 °FMild.1 mph91%30.00 "HgN/A
Weather by CustomWeather, © 2016

See weather overviewHow to use our weather pages